Find Starlink 37099

NORAD ID: 68301 Int'l Des: 2026-057 Owner: SPXS Country: US Constellation: starlink operational
LEOCIRCULARRETROGRADE

現在のビュー

3D地球を読み込み中...

About Starlink 37099

Starlink 37099 (NORAD 68301) is a starlink constellation satellite (v2 mini) launched Mar 20, 2026 by SPXS of US. It operates in LEO, CIRCULAR, RETROGRADE orbit with a mass of 575.00 kg.

Starlink 37099について

説明を読み込み中...

次回通過

Passes for default location (London). Set your location on the main map for personalized predictions.

高度履歴

Loading altitude history...

軌道要素

1 68301U 26057H 26170.78927679 .00018330 00000-0 56857-3 0 9998
2 68301 97.2870 297.4723 0000950 93.3494 266.7857 15.33452961 14301
Epoch: Jun 19, 2026 • Age: 6 hours

現在のステータス

高度 488.8 km
速度 7.62 km/s
衛星直下点 -58.65°S, 172.8°W
打ち上げ日 Mar 20, 2026
運用期間 0.2 years
タイプ internet

技術仕様

分類 Payload
質量 575.00 kg
乾燥質量 530.00 kg
総質量 575.00 kg
長さ 0.30 m
直径 4.10 m
スパン 29.00 m
形状 Box + pan
製造者 SPXS
バスタイプ Starlink V2MO
フェーズステータス In Orbit
所有者/国 SPXS/US

Most Searched